owner,sensor,date,latitude,longitude,vertical_datum,direction_of_sea_water_velocity,sea_water_speed,upward_sea_water_velocity,qcFlag 
ADCP,ioos:station:wmo:42373:1,2008-06-01T00:10:00Z,27.3540,-94.6250,79.0,77.0,32.6,-9999.0,'11111222,11111222,99999999' 
ADCP,ioos:station:wmo:42373:1,2008-06-01T00:30:00Z,27.3540,-94.6250,79.0,77.0,32.8,-9999.0,'11111222,11111222,99999999' 
ADCP,ioos:station:wmo:42373:1,2008-06-01T00:50:00Z,27.3540,-94.6250,79.0,79.0,32.9,-9999.0,'11111222,11111222,99999999' 
ADCP,ioos:station:wmo:42373:1,2008-06-01T01:10:00Z,27.3540,-94.6250,79.0,82.0,35.5,-9999.0,'11111222,11111222,99999999' 
ADCP,ioos:station:wmo:42373:1,2008-06-01T01:30:00Z,27.3540,-94.6250,79.0,84.0,36.9,-9999.0,'11111222,11111222,99999999' 
ADCP,ioos:station:wmo:42373:1,2008-06-01T01:50:00Z,27.3540,-94.6250,79.0,83.0,34.5,-9999.0,'11111222,11111222,99999999' 
ADCP,ioos:station:wmo:42373:1,2008-06-01T02:10:00Z,27.3540,-94.6250,79.0,84.0,34.2,-9999.0,'11111222,11111222,99999999' 
ADCP,ioos:station:wmo:42373:1,2008-06-01T02:30:00Z,27.3540,-94.6250,79.0,86.0,34.9,-9999.0,'11111222,11111222,99999999' 
ADCP,ioos:station:wmo:42373:1,2008-06-01T02:50:00Z,27.3540,-94.6250,79.0,89.0,33.6,-9999.0,'11111222,11111222,99999999' 
ADCP,ioos:station:wmo:42373:1,2008-06-01T03:10:00Z,27.3540,-94.6250,79.0,89.0,33.1,-9999.0,'11111222,11111222,99999999' 
ADCP,ioos:station:wmo:42373:1,2008-06-01T03:30:00Z,27.3540,-94.6250,79.0,92.0,32.7,-9999.0,'11111222,11111222,99999999' 
ADCP,ioos:station:wmo:42373:1,2008-06-01T03:50:00Z,27.3540,-94.6250,79.0,94.0,31.4,-9999.0,'11111222,11111222,99999999' 
ADCP,ioos:station:wmo:42373:1,2008-06-01T04:10:00Z,27.3540,-94.6250,79.0,92.0,31.8,-9999.0,'11111222,11111222,99999999' 
ADCP,ioos:station:wmo:42373:1,2008-06-01T04:30:00Z,27.3540,-94.6250,79.0,95.0,29.8,-9999.0,'11111222,11111222,99999999' 
ADCP,ioos:station:wmo:42373:1,2008-06-01T04:50:00Z,27.3540,-94.6250,79.0,97.0,26.9,-9999.0,'11111222,11111222,99999999' 
ADCP,ioos:station:wmo:42373:1,2008-06-01T05:10:00Z,27.3540,-94.6250,79.0,100.0,28.0,-9999.0,'11111222,11111222,99999999' 
ADCP,ioos:station:wmo:42373:1,2008-06-01T05:30:00Z,27.3540,-94.6250,79.0,99.0,26.1,-9999.0,'11111222,11111222,99999999' 
ADCP,ioos:station:wmo:42373:1,2008-06-01T05:50:00Z,27.3540,-94.6250,79.0,98.0,27.4,-9999.0,'11111222,11111222,99999999' 
ADCP,ioos:station:wmo:42373:1,2008-06-01T06:10:00Z,27.3540,-94.6250,79.0,100.0,26.9,-9999.0,'11111222,11111222,99999999' 
ADCP,ioos:station:wmo:42373:1,2008-06-01T06:30:00Z,27.3540,-94.6250,79.0,102.0,25.5,-9999.0,'11111222,11111222,99999999' 
ADCP,ioos:station:wmo:42373:1,2008-06-01T06:50:00Z,27.3540,-94.6250,79.0,103.0,24.7,-9999.0,'11111222,11111222,99999999' 
ADCP,ioos:station:wmo:42373:1,2008-06-01T07:10:00Z,27.3540,-94.6250,79.0,102.0,24.1,-9999.0,'11111222,11111222,99999999' 
ADCP,ioos:station:wmo:42373:1,2008-06-01T07:30:00Z,27.3540,-94.6250,79.0,103.0,23.9,-9999.0,'11111222,11111222,99999999' 
ADCP,ioos:station:wmo:42373:1,2008-06-01T07:50:00Z,27.3540,-94.6250,79.0,104.0,24.9,-9999.0,'11111222,11111222,99999999' 
ADCP,ioos:station:wmo:42373:1,2008-06-01T08:10:00Z,27.3540,-94.6250,79.0,105.0,23.8,-9999.0,'11111222,11111222,99999999' 
ADCP,ioos:station:wmo:42373:1,2008-06-01T08:30:00Z,27.3540,-94.6250,79.0,102.0,24.0,-9999.0,'11111222,11111222,99999999' 
ADCP,ioos:station:wmo:42373:1,2008-06-01T08:50:00Z,27.3540,-94.6250,79.0,102.0,24.0,-9999.0,'11111222,11111222,99999999' 
ADCP,ioos:station:wmo:42373:1,2008-06-01T09:10:00Z,27.3540,-94.6250,79.0,105.0,22.9,-9999.0,'11111222,11111222,99999999' 
ADCP,ioos:station:wmo:42373:1,2008-06-01T09:30:00Z,27.3540,-94.6250,79.0,103.0,25.6,-9999.0,'11111222,11111222,99999999' 
ADCP,ioos:station:wmo:42373:1,2008-06-01T09:50:00Z,27.3540,-94.6250,79.0,109.0,22.6,-9999.0,'11111222,11111222,99999999' 
ADCP,ioos:station:wmo:42373:1,2008-06-01T10:10:00Z,27.3540,-94.6250,79.0,104.0,24.8,-9999.0,'11111222,11111222,99999999' 
ADCP,ioos:station:wmo:42373:1,2008-06-01T10:30:00Z,27.3540,-94.6250,79.0,102.0,23.3,-9999.0,'11111222,11111222,99999999' 
ADCP,ioos:station:wmo:42373:1,2008-06-01T10:50:00Z,27.3540,-94.6250,79.0,105.0,22.9,-9999.0,'11111222,11111222,99999999' 
ADCP,ioos:station:wmo:42373:1,2008-06-01T11:10:00Z,27.3540,-94.6250,79.0,109.0,16.4,-9999.0,'11111222,11111222,99999999' 
ADCP,ioos:station:wmo:42373:1,2008-06-01T11:30:00Z,27.3540,-94.6250,79.0,114.0,13.7,-9999.0,'11111222,11111222,99999999' 
ADCP,ioos:station:wmo:42373:1,2008-06-01T11:50:00Z,27.3540,-94.6250,79.0,110.0,17.6,-9999.0,'11111222,11111222,99999999' 
ADCP,ioos:station:wmo:42373:1,2008-06-01T12:10:00Z,27.3540,-94.6250,79.0,108.0,14.7,-9999.0,'11111222,11111222,99999999' 
ADCP,ioos:station:wmo:42373:1,2008-06-01T12:30:00Z,27.3540,-94.6250,79.0,109.0,16.3,-9999.0,'11111222,11111222,99999999' 
ADCP,ioos:station:wmo:42373:1,2008-06-01T12:50:00Z,27.3540,-94.6250,79.0,106.0,17.4,-9999.0,'11111222,11111222,99999999' 
ADCP,ioos:station:wmo:42373:1,2008-06-01T13:50:00Z,27.3540,-94.6250,79.0,98.0,19.8,-9999.0,'11111222,11111222,99999999' 
ADCP,ioos:station:wmo:42373:1,2008-06-01T14:10:00Z,27.3540,-94.6250,79.0,98.0,19.5,-9999.0,'11111222,11111222,99999999' 
ADCP,ioos:station:wmo:42373:1,2008-06-01T14:30:00Z,27.3540,-94.6250,79.0,99.0,19.5,-9999.0,'11111222,11111222,99999999' 
ADCP,ioos:station:wmo:42373:1,2008-06-01T14:50:00Z,27.3540,-94.6250,79.0,100.0,20.3,-9999.0,'11111222,11111222,99999999' 
ADCP,ioos:station:wmo:42373:1,2008-06-01T15:10:00Z,27.3540,-94.6250,79.0,101.0,19.1,-9999.0,'11111222,11111222,99999999' 
ADCP,ioos:station:wmo:42373:1,2008-06-01T15:30:00Z,27.3540,-94.6250,79.0,100.0,19.2,-9999.0,'11111222,11111222,99999999' 
ADCP,ioos:station:wmo:42373:1,2008-06-01T15:50:00Z,27.3540,-94.6250,79.0,102.0,18.2,-9999.0,'11111222,11111222,99999999' 
ADCP,ioos:station:wmo:42373:1,2008-06-01T16:10:00Z,27.3540,-94.6250,79.0,104.0,17.5,-9999.0,'11111222,11111222,99999999' 
ADCP,ioos:station:wmo:42373:1,2008-06-01T16:30:00Z,27.3540,-94.6250,79.0,101.0,17.2,-9999.0,'11111222,11111222,99999999' 
ADCP,ioos:station:wmo:42373:1,2008-06-01T16:50:00Z,27.3540,-94.6250,79.0,101.0,15.8,-9999.0,'11111222,11111222,99999999' 
ADCP,ioos:station:wmo:42373:1,2008-06-01T17:10:00Z,27.3540,-94.6250,79.0,99.0,16.1,-9999.0,'11111222,11111222,99999999' 
ADCP,ioos:station:wmo:42373:1,2008-06-01T17:30:00Z,27.3540,-94.6250,79.0,94.0,17.3,-9999.0,'11111222,11111222,99999999' 
ADCP,ioos:station:wmo:42373:1,2008-06-01T17:50:00Z,27.3540,-94.6250,79.0,96.0,16.0,-9999.0,'11111222,11111222,99999999' 
ADCP,ioos:station:wmo:42373:1,2008-06-01T18:10:00Z,27.3540,-94.6250,79.0,93.0,16.8,-9999.0,'11111222,11111222,99999999' 
ADCP,ioos:station:wmo:42373:1,2008-06-01T18:30:00Z,27.3540,-94.6250,79.0,91.0,16.1,-9999.0,'11111222,11111222,99999999' 
ADCP,ioos:station:wmo:42373:1,2008-06-01T18:50:00Z,27.3540,-94.6250,79.0,92.0,17.9,-9999.0,'11111222,11111222,99999999' 
ADCP,ioos:station:wmo:42373:1,2008-06-01T19:10:00Z,27.3540,-94.6250,79.0,91.0,18.2,-9999.0,'11111222,11111222,99999999' 
ADCP,ioos:station:wmo:42373:1,2008-06-01T19:30:00Z,27.3540,-94.6250,79.0,94.0,17.5,-9999.0,'11111222,11111222,99999999' 
ADCP,ioos:station:wmo:42373:1,2008-06-01T19:50:00Z,27.3540,-94.6250,79.0,92.0,18.0,-9999.0,'11111222,11111222,99999999' 
ADCP,ioos:station:wmo:42373:1,2008-06-01T20:10:00Z,27.3540,-94.6250,79.0,89.0,17.9,-9999.0,'11111222,11111222,99999999' 
ADCP,ioos:station:wmo:42373:1,2008-06-01T20:30:00Z,27.3540,-94.6250,79.0,87.0,18.9,-9999.0,'11111222,11111222,99999999' 
ADCP,ioos:station:wmo:42373:1,2008-06-01T20:50:00Z,27.3540,-94.6250,79.0,87.0,19.3,-9999.0,'11111222,11111222,99999999' 
ADCP,ioos:station:wmo:42373:1,2008-06-01T21:10:00Z,27.3540,-94.6250,79.0,87.0,20.8,-9999.0,'11111222,11111222,99999999' 
ADCP,ioos:station:wmo:42373:1,2008-06-01T21:30:00Z,27.3540,-94.6250,79.0,87.0,21.1,-9999.0,'11111222,11111222,99999999' 
ADCP,ioos:station:wmo:42373:1,2008-06-01T21:50:00Z,27.3540,-94.6250,79.0,88.0,22.1,-9999.0,'11111222,11111222,99999999' 
ADCP,ioos:station:wmo:42373:1,2008-06-01T22:10:00Z,27.3540,-94.6250,79.0,85.0,22.7,-9999.0,'11111222,11111222,99999999' 
ADCP,ioos:station:wmo:42373:1,2008-06-01T22:30:00Z,27.3540,-94.6250,79.0,84.0,25.0,-9999.0,'11111222,11111222,99999999' 
ADCP,ioos:station:wmo:42373:1,2008-06-01T22:50:00Z,27.3540,-94.6250,79.0,86.0,25.0,-9999.0,'11111222,11111222,99999999' 
ADCP,ioos:station:wmo:42373:1,2008-06-01T23:10:00Z,27.3540,-94.6250,79.0,85.0,25.0,-9999.0,'11111222,11111222,99999999' 
ADCP,ioos:station:wmo:42373:1,2008-06-01T23:30:00Z,27.3540,-94.6250,79.0,86.0,25.2,-9999.0,'11111222,11111222,99999999' 
ADCP,ioos:station:wmo:42373:1,2008-06-01T23:50:00Z,27.3540,-94.6250,79.0,86.0,26.2,-9999.0,'11111222,11111222,99999999' 
ADCP,ioos:station:wmo:42373:1,2008-06-02T00:10:00Z,27.3540,-94.6250,79.0,81.0,22.4,-9999.0,'11111222,11111222,99999999' 
ADCP,ioos:station:wmo:42373:1,2008-06-02T00:30:00Z,27.3540,-94.6250,79.0,85.0,26.7,-9999.0,'11111222,11111222,99999999' 
ADCP,ioos:station:wmo:42373:1,2008-06-02T00:50:00Z,27.3540,-94.6250,79.0,85.0,28.2,-9999.0,'11111222,11111222,99999999' 
ADCP,ioos:station:wmo:42373:1,2008-06-02T01:10:00Z,27.3540,-94.6250,79.0,85.0,28.2,-9999.0,'11111222,11111222,99999999' 
ADCP,ioos:station:wmo:42373:1,2008-06-02T01:30:00Z,27.3540,-94.6250,79.0,85.0,28.7,-9999.0,'11111222,11111222,99999999' 
ADCP,ioos:station:wmo:42373:1,2008-06-02T01:50:00Z,27.3540,-94.6250,79.0,86.0,28.6,-9999.0,'11111222,11111222,99999999' 
ADCP,ioos:station:wmo:42373:1,2008-06-02T02:10:00Z,27.3540,-94.6250,79.0,87.0,27.8,-9999.0,'11111222,11111222,99999999' 
ADCP,ioos:station:wmo:42373:1,2008-06-02T02:30:00Z,27.3540,-94.6250,79.0,87.0,26.5,-9999.0,'11111222,11111222,99999999' 
ADCP,ioos:station:wmo:42373:1,2008-06-02T02:50:00Z,27.3540,-94.6250,79.0,86.0,26.2,-9999.0,'11111222,11111222,99999999' 
ADCP,ioos:station:wmo:42373:1,2008-06-02T03:10:00Z,27.3540,-94.6250,79.0,86.0,26.4,-9999.0,'11111222,11111222,99999999' 
ADCP,ioos:station:wmo:42373:1,2008-06-02T03:30:00Z,27.3540,-94.6250,79.0,86.0,26.9,-9999.0,'11111222,11111222,99999999' 
ADCP,ioos:station:wmo:42373:1,2008-06-02T03:50:00Z,27.3540,-94.6250,79.0,89.0,26.9,-9999.0,'11111222,11111222,99999999' 
ADCP,ioos:station:wmo:42373:1,2008-06-02T04:10:00Z,27.3540,-94.6250,79.0,90.0,28.7,-9999.0,'11111222,11111222,99999999' 
ADCP,ioos:station:wmo:42373:1,2008-06-02T04:30:00Z,27.3540,-94.6250,79.0,92.0,28.9,-9999.0,'11111222,11111222,99999999' 
ADCP,ioos:station:wmo:42373:1,2008-06-02T04:50:00Z,27.3540,-94.6250,79.0,91.0,28.4,-9999.0,'11111222,11111222,99999999' 
ADCP,ioos:station:wmo:42373:1,2008-06-02T05:10:00Z,27.3540,-94.6250,79.0,91.0,28.8,-9999.0,'11111222,11111222,99999999' 
ADCP,ioos:station:wmo:42373:1,2008-06-02T05:30:00Z,27.3540,-94.6250,79.0,93.0,28.1,-9999.0,'11111222,11111222,99999999' 
ADCP,ioos:station:wmo:42373:1,2008-06-02T05:50:00Z,27.3540,-94.6250,79.0,95.0,27.7,-9999.0,'11111222,11111222,99999999' 
ADCP,ioos:station:wmo:42373:1,2008-06-02T06:10:00Z,27.3540,-94.6250,79.0,95.0,27.4,-9999.0,'11111222,11111222,99999999' 
ADCP,ioos:station:wmo:42373:1,2008-06-02T06:30:00Z,27.3540,-94.6250,79.0,96.0,26.6,-9999.0,'11111222,11111222,99999999' 
ADCP,ioos:station:wmo:42373:1,2008-06-02T06:50:00Z,27.3540,-94.6250,79.0,96.0,29.8,-9999.0,'11111222,11111222,99999999' 
ADCP,ioos:station:wmo:42373:1,2008-06-02T07:10:00Z,27.3540,-94.6250,79.0,96.0,29.7,-9999.0,'11111222,11111222,99999999' 
ADCP,ioos:station:wmo:42373:1,2008-06-02T07:30:00Z,27.3540,-94.6250,79.0,97.0,31.0,-9999.0,'11111222,11111222,99999999' 
ADCP,ioos:station:wmo:42373:1,2008-06-02T07:50:00Z,27.3540,-94.6250,79.0,96.0,31.2,-9999.0,'11111222,11111222,99999999' 
ADCP,ioos:station:wmo:42373:1,2008-06-02T08:10:00Z,27.3540,-94.6250,79.0,97.0,30.2,-9999.0,'11111222,11111222,99999999' 
ADCP,ioos:station:wmo:42373:1,2008-06-02T08:30:00Z,27.3540,-94.6250,79.0,99.0,28.8,-9999.0,'11111222,11111222,99999999' 
ADCP,ioos:station:wmo:42373:1,2008-06-02T08:50:00Z,27.3540,-94.6250,79.0,97.0,30.7,-9999.0,'11111222,11111222,99999999' 
ADCP,ioos:station:wmo:42373:1,2008-06-02T09:10:00Z,27.3540,-94.6250,79.0,99.0,29.2,-9999.0,'11111222,11111222,99999999' 
ADCP,ioos:station:wmo:42373:1,2008-06-02T09:30:00Z,27.3540,-94.6250,79.0,101.0,26.6,-9999.0,'11111222,11111222,99999999' 
ADCP,ioos:station:wmo:42373:1,2008-06-02T09:50:00Z,27.3540,-94.6250,79.0,100.0,28.9,-9999.0,'11111222,11111222,99999999' 
ADCP,ioos:station:wmo:42373:1,2008-06-02T10:10:00Z,27.3540,-94.6250,79.0,99.0,31.0,-9999.0,'11111222,11111222,99999999' 
ADCP,ioos:station:wmo:42373:1,2008-06-02T10:30:00Z,27.3540,-94.6250,79.0,99.0,28.9,-9999.0,'11111222,11111222,99999999' 
ADCP,ioos:station:wmo:42373:1,2008-06-02T10:50:00Z,27.3540,-94.6250,79.0,99.0,29.2,-9999.0,'11111222,11111222,99999999' 
ADCP,ioos:station:wmo:42373:1,2008-06-02T11:10:00Z,27.3540,-94.6250,79.0,103.0,25.7,-9999.0,'11111222,11111222,99999999' 
ADCP,ioos:station:wmo:42373:1,2008-06-02T11:30:00Z,27.3540,-94.6250,79.0,105.0,20.7,-9999.0,'11111222,11111222,99999999' 
ADCP,ioos:station:wmo:42373:1,2008-06-02T11:50:00Z,27.3540,-94.6250,79.0,100.0,25.6,-9999.0,'11111222,11111222,99999999' 
ADCP,ioos:station:wmo:42373:1,2008-06-02T12:10:00Z,27.3540,-94.6250,79.0,104.0,20.6,-9999.0,'11111222,11111222,99999999' 
ADCP,ioos:station:wmo:42373:1,2008-06-02T12:30:00Z,27.3540,-94.6250,79.0,99.0,29.2,-9999.0,'11111222,11111222,99999999' 
ADCP,ioos:station:wmo:42373:1,2008-06-02T12:50:00Z,27.3540,-94.6250,79.0,100.0,28.8,-9999.0,'11111222,11111222,99999999' 
ADCP,ioos:station:wmo:42373:1,2008-06-02T13:50:00Z,27.3540,-94.6250,79.0,102.0,30.5,-9999.0,'11111222,11111222,99999999' 
ADCP,ioos:station:wmo:42373:1,2008-06-02T14:10:00Z,27.3540,-94.6250,79.0,103.0,28.0,-9999.0,'11111222,11111222,99999999' 
ADCP,ioos:station:wmo:42373:1,2008-06-02T14:30:00Z,27.3540,-94.6250,79.0,102.0,27.9,-9999.0,'11111222,11111222,99999999' 
ADCP,ioos:station:wmo:42373:1,2008-06-02T14:50:00Z,27.3540,-94.6250,79.0,99.0,26.2,-9999.0,'11111222,11111222,99999999' 
ADCP,ioos:station:wmo:42373:1,2008-06-02T15:10:00Z,27.3540,-94.6250,79.0,97.0,24.4,-9999.0,'11111222,11111222,99999999' 
ADCP,ioos:station:wmo:42373:1,2008-06-02T15:30:00Z,27.3540,-94.6250,79.0,96.0,25.0,-9999.0,'11111222,11111222,99999999' 
ADCP,ioos:station:wmo:42373:1,2008-06-02T15:50:00Z,27.3540,-94.6250,79.0,90.0,23.8,-9999.0,'11111222,11111222,99999999' 
ADCP,ioos:station:wmo:42373:1,2008-06-02T16:10:00Z,27.3540,-94.6250,79.0,87.0,22.5,-9999.0,'11111222,11111222,99999999' 
ADCP,ioos:station:wmo:42373:1,2008-06-02T16:30:00Z,27.3540,-94.6250,79.0,88.0,23.8,-9999.0,'11111222,11111222,99999999' 
ADCP,ioos:station:wmo:42373:1,2008-06-02T16:50:00Z,27.3540,-94.6250,79.0,84.0,22.6,-9999.0,'11111222,11111222,99999999' 
ADCP,ioos:station:wmo:42373:1,2008-06-02T17:10:00Z,27.3540,-94.6250,79.0,83.0,23.9,-9999.0,'11111222,11111222,99999999' 
ADCP,ioos:station:wmo:42373:1,2008-06-02T17:30:00Z,27.3540,-94.6250,79.0,80.0,24.7,-9999.0,'11111222,11111222,99999999' 
ADCP,ioos:station:wmo:42373:1,2008-06-02T17:50:00Z,27.3540,-94.6250,79.0,78.0,26.2,-9999.0,'11111222,11111222,99999999' 
ADCP,ioos:station:wmo:42373:1,2008-06-02T18:10:00Z,27.3540,-94.6250,79.0,77.0,27.2,-9999.0,'11111222,11111222,99999999' 
ADCP,ioos:station:wmo:42373:1,2008-06-02T18:30:00Z,27.3540,-94.6250,79.0,75.0,26.6,-9999.0,'11111222,11111222,99999999' 
ADCP,ioos:station:wmo:42373:1,2008-06-02T18:50:00Z,27.3540,-94.6250,79.0,73.0,26.3,-9999.0,'11111222,11111222,99999999' 
ADCP,ioos:station:wmo:42373:1,2008-06-02T19:10:00Z,27.3540,-94.6250,79.0,72.0,27.3,-9999.0,'11111222,11111222,99999999' 
ADCP,ioos:station:wmo:42373:1,2008-06-02T19:30:00Z,27.3540,-94.6250,79.0,72.0,27.2,-9999.0,'11111222,11111222,99999999' 
ADCP,ioos:station:wmo:42373:1,2008-06-02T19:50:00Z,27.3540,-94.6250,79.0,75.0,29.0,-9999.0,'11111222,11111222,99999999' 
ADCP,ioos:station:wmo:42373:1,2008-06-02T20:10:00Z,27.3540,-94.6250,79.0,75.0,29.3,-9999.0,'11111222,11111222,99999999' 
ADCP,ioos:station:wmo:42373:1,2008-06-02T20:30:00Z,27.3540,-94.6250,79.0,76.0,30.4,-9999.0,'11111222,11111222,99999999' 
ADCP,ioos:station:wmo:42373:1,2008-06-02T20:50:00Z,27.3540,-94.6250,79.0,74.0,30.6,-9999.0,'11111222,11111222,99999999' 
ADCP,ioos:station:wmo:42373:1,2008-06-02T21:10:00Z,27.3540,-94.6250,79.0,75.0,31.4,-9999.0,'11111222,11111222,99999999' 
ADCP,ioos:station:wmo:42373:1,2008-06-02T21:30:00Z,27.3540,-94.6250,79.0,74.0,30.9,-9999.0,'11111222,11111222,99999999' 
ADCP,ioos:station:wmo:42373:1,2008-06-02T21:50:00Z,27.3540,-94.6250,79.0,74.0,30.5,-9999.0,'11111222,11111222,99999999' 
ADCP,ioos:station:wmo:42373:1,2008-06-02T22:10:00Z,27.3540,-94.6250,79.0,73.0,32.0,-9999.0,'11111222,11111222,99999999' 
ADCP,ioos:station:wmo:42373:1,2008-06-02T22:30:00Z,27.3540,-94.6250,79.0,75.0,32.0,-9999.0,'11111222,11111222,99999999' 
ADCP,ioos:station:wmo:42373:1,2008-06-02T22:50:00Z,27.3540,-94.6250,79.0,77.0,32.6,-9999.0,'11111222,11111222,99999999' 
ADCP,ioos:station:wmo:42373:1,2008-06-02T23:10:00Z,27.3540,-94.6250,79.0,78.0,32.2,-9999.0,'11111222,11111222,99999999' 
ADCP,ioos:station:wmo:42373:1,2008-06-02T23:30:00Z,27.3540,-94.6250,79.0,79.0,32.3,-9999.0,'11111222,11111222,99999999' 
ADCP,ioos:station:wmo:42373:1,2008-06-02T23:50:00Z,27.3540,-94.6250,79.0,80.0,32.3,-9999.0,'11111222,11111222,99999999' 
ADCP,ioos:station:wmo:42373:1,2008-06-03T00:10:00Z,27.3540,-94.6250,79.0,80.0,30.7,-9999.0,'11111222,11111222,99999999' 
ADCP,ioos:station:wmo:42373:1,2008-06-03T00:30:00Z,27.3540,-94.6250,79.0,80.0,29.9,-9999.0,'11111222,11111222,99999999' 
ADCP,ioos:station:wmo:42373:1,2008-06-03T00:50:00Z,27.3540,-94.6250,79.0,82.0,28.0,-9999.0,'11111222,11111222,99999999' 
ADCP,ioos:station:wmo:42373:1,2008-06-03T01:10:00Z,27.3540,-94.6250,79.0,84.0,29.6,-9999.0,'11111222,11111222,99999999' 
ADCP,ioos:station:wmo:42373:1,2008-06-03T01:30:00Z,27.3540,-94.6250,79.0,84.0,29.9,-9999.0,'11111222,11111222,99999999' 
ADCP,ioos:station:wmo:42373:1,2008-06-03T01:50:00Z,27.3540,-94.6250,79.0,85.0,30.5,-9999.0,'11111222,11111222,99999999' 
ADCP,ioos:station:wmo:42373:1,2008-06-03T02:10:00Z,27.3540,-94.6250,79.0,86.0,31.1,-9999.0,'11111222,11111222,99999999' 
ADCP,ioos:station:wmo:42373:1,2008-06-03T02:30:00Z,27.3540,-94.6250,79.0,88.0,30.9,-9999.0,'11111222,11111222,99999999' 
ADCP,ioos:station:wmo:42373:1,2008-06-03T02:50:00Z,27.3540,-94.6250,79.0,88.0,31.6,-9999.0,'11111222,11111222,99999999' 
ADCP,ioos:station:wmo:42373:1,2008-06-03T03:10:00Z,27.3540,-94.6250,79.0,84.0,29.2,-9999.0,'11111222,11111222,99999999' 
ADCP,ioos:station:wmo:42373:1,2008-06-03T03:30:00Z,27.3540,-94.6250,79.0,84.0,30.0,-9999.0,'11111222,11111222,99999999' 
ADCP,ioos:station:wmo:42373:1,2008-06-03T03:50:00Z,27.3540,-94.6250,79.0,83.0,30.1,-9999.0,'11111222,11111222,99999999' 
ADCP,ioos:station:wmo:42373:1,2008-06-03T04:10:00Z,27.3540,-94.6250,79.0,83.0,31.2,-9999.0,'11111222,11111222,99999999' 
ADCP,ioos:station:wmo:42373:1,2008-06-03T04:30:00Z,27.3540,-94.6250,79.0,85.0,31.5,-9999.0,'11111222,11111222,99999999' 
ADCP,ioos:station:wmo:42373:1,2008-06-03T04:50:00Z,27.3540,-94.6250,79.0,85.0,32.8,-9999.0,'11111222,11111222,99999999' 
ADCP,ioos:station:wmo:42373:1,2008-06-03T05:10:00Z,27.3540,-94.6250,79.0,87.0,32.8,-9999.0,'11111222,11111222,99999999' 
ADCP,ioos:station:wmo:42373:1,2008-06-03T05:30:00Z,27.3540,-94.6250,79.0,88.0,31.4,-9999.0,'11111222,11111222,99999999' 
ADCP,ioos:station:wmo:42373:1,2008-06-03T05:50:00Z,27.3540,-94.6250,79.0,89.0,31.0,-9999.0,'11111222,11111222,99999999' 
ADCP,ioos:station:wmo:42373:1,2008-06-03T06:10:00Z,27.3540,-94.6250,79.0,91.0,29.5,-9999.0,'11111222,11111222,99999999' 
ADCP,ioos:station:wmo:42373:1,2008-06-03T06:30:00Z,27.3540,-94.6250,79.0,90.0,29.1,-9999.0,'11111222,11111222,99999999' 
ADCP,ioos:station:wmo:42373:1,2008-06-03T06:50:00Z,27.3540,-94.6250,79.0,91.0,28.3,-9999.0,'11111222,11111222,99999999' 
ADCP,ioos:station:wmo:42373:1,2008-06-03T07:10:00Z,27.3540,-94.6250,79.0,91.0,26.7,-9999.0,'11111222,11111222,99999999' 
ADCP,ioos:station:wmo:42373:1,2008-06-03T07:30:00Z,27.3540,-94.6250,79.0,93.0,25.4,-9999.0,'11111222,11111222,99999999' 
ADCP,ioos:station:wmo:42373:1,2008-06-03T07:50:00Z,27.3540,-94.6250,79.0,91.0,25.3,-9999.0,'11111222,11111222,99999999' 
ADCP,ioos:station:wmo:42373:1,2008-06-03T08:10:00Z,27.3540,-94.6250,79.0,93.0,23.6,-9999.0,'11111222,11111222,99999999' 
ADCP,ioos:station:wmo:42373:1,2008-06-03T08:30:00Z,27.3540,-94.6250,79.0,95.0,26.0,-9999.0,'11111222,11111222,99999999' 
ADCP,ioos:station:wmo:42373:1,2008-06-03T08:50:00Z,27.3540,-94.6250,79.0,98.0,26.5,-9999.0,'11111222,11111222,99999999' 
ADCP,ioos:station:wmo:42373:1,2008-06-03T09:10:00Z,27.3540,-94.6250,79.0,99.0,24.8,-9999.0,'11111222,11111222,99999999' 
ADCP,ioos:station:wmo:42373:1,2008-06-03T09:30:00Z,27.3540,-94.6250,79.0,97.0,24.9,-9999.0,'11111222,11111222,99999999' 
ADCP,ioos:station:wmo:42373:1,2008-06-03T09:50:00Z,27.3540,-94.6250,79.0,98.0,26.1,-9999.0,'11111222,11111222,99999999' 
ADCP,ioos:station:wmo:42373:1,2008-06-03T10:10:00Z,27.3540,-94.6250,79.0,97.0,23.4,-9999.0,'11111222,11111222,99999999' 
ADCP,ioos:station:wmo:42373:1,2008-06-03T10:30:00Z,27.3540,-94.6250,79.0,96.0,23.7,-9999.0,'11111222,11111222,99999999' 
ADCP,ioos:station:wmo:42373:1,2008-06-03T10:50:00Z,27.3540,-94.6250,79.0,98.0,23.7,-9999.0,'11111222,11111222,99999999' 
ADCP,ioos:station:wmo:42373:1,2008-06-03T11:10:00Z,27.3540,-94.6250,79.0,96.0,24.5,-9999.0,'11111222,11111222,99999999' 
ADCP,ioos:station:wmo:42373:1,2008-06-03T11:30:00Z,27.3540,-94.6250,79.0,99.0,24.2,-9999.0,'11111222,11111222,99999999' 
ADCP,ioos:station:wmo:42373:1,2008-06-03T11:50:00Z,27.3540,-94.6250,79.0,96.0,24.9,-9999.0,'11111222,11111222,99999999' 
ADCP,ioos:station:wmo:42373:1,2008-06-03T12:10:00Z,27.3540,-94.6250,79.0,94.0,23.7,-9999.0,'11111222,11111222,99999999' 
ADCP,ioos:station:wmo:42373:1,2008-06-03T12:30:00Z,27.3540,-94.6250,79.0,93.0,25.8,-9999.0,'11111222,11111222,99999999' 
ADCP,ioos:station:wmo:42373:1,2008-06-03T12:50:00Z,27.3540,-94.6250,79.0,94.0,25.4,-9999.0,'11111222,11111222,99999999' 
ADCP,ioos:station:wmo:42373:1,2008-06-03T13:50:00Z,27.3540,-94.6250,79.0,89.0,23.9,-9999.0,'11111222,11111222,99999999' 
ADCP,ioos:station:wmo:42373:1,2008-06-03T14:10:00Z,27.3540,-94.6250,79.0,89.0,23.3,-9999.0,'11111222,11111222,99999999' 
ADCP,ioos:station:wmo:42373:1,2008-06-03T14:30:00Z,27.3540,-94.6250,79.0,88.0,23.5,-9999.0,'11111222,11111222,99999999' 
ADCP,ioos:station:wmo:42373:1,2008-06-03T14:50:00Z,27.3540,-94.6250,79.0,87.0,23.3,-9999.0,'11111222,11111222,99999999' 
ADCP,ioos:station:wmo:42373:1,2008-06-03T15:10:00Z,27.3540,-94.6250,79.0,88.0,22.9,-9999.0,'11111222,11111222,99999999' 
ADCP,ioos:station:wmo:42373:1,2008-06-03T15:30:00Z,27.3540,-94.6250,79.0,87.0,23.0,-9999.0,'11111222,11111222,99999999' 
ADCP,ioos:station:wmo:42373:1,2008-06-03T15:50:00Z,27.3540,-94.6250,79.0,85.0,23.9,-9999.0,'11111222,11111222,99999999' 
ADCP,ioos:station:wmo:42373:1,2008-06-03T16:10:00Z,27.3540,-94.6250,79.0,84.0,24.0,-9999.0,'11111222,11111222,99999999' 
ADCP,ioos:station:wmo:42373:1,2008-06-03T16:30:00Z,27.3540,-94.6250,79.0,81.0,25.6,-9999.0,'11111222,11111222,99999999' 
ADCP,ioos:station:wmo:42373:1,2008-06-03T16:50:00Z,27.3540,-94.6250,79.0,79.0,26.1,-9999.0,'11111222,11111222,99999999' 
ADCP,ioos:station:wmo:42373:1,2008-06-03T17:10:00Z,27.3540,-94.6250,79.0,78.0,26.8,-9999.0,'11111222,11111222,99999999' 
ADCP,ioos:station:wmo:42373:1,2008-06-03T17:30:00Z,27.3540,-94.6250,79.0,79.0,27.5,-9999.0,'11111222,11111222,99999999' 
ADCP,ioos:station:wmo:42373:1,2008-06-03T17:50:00Z,27.3540,-94.6250,79.0,80.0,28.7,-9999.0,'11111222,11111222,99999999' 
ADCP,ioos:station:wmo:42373:1,2008-06-03T18:10:00Z,27.3540,-94.6250,79.0,82.0,26.8,-9999.0,'11111222,11111222,99999999' 
ADCP,ioos:station:wmo:42373:1,2008-06-03T18:30:00Z,27.3540,-94.6250,79.0,83.0,27.9,-9999.0,'11111222,11111222,99999999' 
ADCP,ioos:station:wmo:42373:1,2008-06-03T18:50:00Z,27.3540,-94.6250,79.0,84.0,27.6,-9999.0,'11111222,11111222,99999999' 
ADCP,ioos:station:wmo:42373:1,2008-06-03T19:10:00Z,27.3540,-94.6250,79.0,82.0,27.7,-9999.0,'11111222,11111222,99999999' 